This is the latest recevied weather packets stored in our database for station/object K4CRS-13. If no packets are shown the sender has not sent any weather packets the latest 10 day(s).
| Time | Temp. | Humidity | Pressure | Rain* | Wind** | Luminosity | Snow |
|---|---|---|---|---|---|---|---|
| 1777501342 | 21.67° C | 82% | 1046.3 hPa | 0 mm | - | 114 W/m² | - |
| 1777501040 | 21.67° C | 83% | 1046 hPa | 0 mm | - | 122 W/m² | - |
| 1777500738 | 22.22° C | 82% | 1045.8 hPa | 0 mm | - | 131 W/m² | - |
| 1777500434 | 22.22° C | 81% | 1045.8 hPa | 0 mm | - | 131 W/m² | - |
| 1777500130 | 22.78° C | 80% | 1045.7 hPa | 0 mm | - | 102 W/m² | - |
| 1777499828 | 22.78° C | 78% | 1045.9 hPa | 0 mm | - | 114 W/m² | - |
| 1777499523 | 23.89° C | 78% | 1045.5 hPa | 0 mm | - | 121 W/m² | - |
| 1777499222 | 23.89° C | 77% | 1046 hPa | 0 mm | - | 198 W/m² | - |
| 1777498918 | 23.89° C | 77% | 1045.7 hPa | 0 mm | - | 307 W/m² | - |
| 1777498615 | 23.89° C | 76% | 1046 hPa | 0 mm | - | 205 W/m² | - |
| 1777498310 | 24.44° C | 75% | 1046 hPa | 0 mm | - | 183 W/m² | - |
| 1777498009 | 24.44° C | 73% | 1046.2 hPa | 0 mm | - | 244 W/m² | - |
| 1777497706 | 25° C | 73% | 1046.3 hPa | 0 mm | - | 247 W/m² | - |
| 1777497402 | 25° C | 71% | 1046.3 hPa | 0 mm | - | 248 W/m² | - |
| 1777497098 | 25° C | 71% | 1046.2 hPa | 0 mm | - | 293 W/m² | - |
| 1777496795 | 25.56° C | 71% | 1046.3 hPa | 0 mm | - | 385 W/m² | - |
| 1777496492 | 25.56° C | 71% | 1046.2 hPa | 0 mm | - | 514 W/m² | - |
| 1777496188 | 25.56° C | 73% | 1046.2 hPa | 0 mm | - | 540 W/m² | - |
| 1777495884 | 25° C | 72% | 1046.2 hPa | 0 mm | - | 351 W/m² | - |
| 1777495580 | 25.56° C | 73% | 1046.1 hPa | 0 mm | - | 458 W/m² | - |
| 1777495276 | 25.56° C | 73% | 1046.3 hPa | 0 mm | - | 430 W/m² | - |
| 1777494974 | 25° C | 74% | 1046.2 hPa | 0 mm | - | 315 W/m² | - |
| 1777494671 | 25.56° C | 73% | 1046.2 hPa | 0 mm | - | 440 W/m² | - |
| 1777494368 | 25.56° C | 72% | 1046.7 hPa | 0 mm | - | 262 W/m² | - |
| 1777494064 | 26.11° C | 72% | 1046.8 hPa | 0 mm | - | 283 W/m² | - |
* Rain latest hour (hover to see other rain measurements)
** Current wind speed in m/s (hover to see current wind gust speed)